LHA203 LOWW-EDLW

Flight info

Callsign LHA203
Flight time 1h 10m
Altitude 36000
Route MEDIX DCT LAMSI DCT RUDNO DCT KULOK DCT RUNEN DCT FULNO T842 ADEMI
Aircraft A20N/M-SDE2E3FGHIRWXY/LB1

Departure

Time 2026-05-04 15:46
Airport Vienna International Airport (LOWW)

Arrival

Time 2026-05-04 16:56
Airport Dortmund Airport (EDLW)
Time Latitude Longitude Altitude Speed Heading
2026-05-04 15:07 48.11863 16.56881 597 ft 0 kts 206°
2026-05-04 15:34 48.11874 16.56888 597 ft 2 kts 207°
2026-05-04 15:34 48.11888 16.56898 597 ft 2 kts 205°
2026-05-04 15:34 48.11914 16.56913 596 ft 2 kts 174°
2026-05-04 15:35 48.11937 16.56892 596 ft 1 kts 117°
2026-05-04 15:35 48.11940 16.56883 596 ft 0 kts 115°
2026-05-04 15:39 48.11938 16.56889 596 ft 2 kts 116°
2026-05-04 15:39 48.11925 16.56925 596 ft 4 kts 117°
2026-05-04 15:39 48.11893 16.57021 596 ft 5 kts 115°
2026-05-04 15:40 48.11875 16.57078 596 ft 6 kts 116°
2026-05-04 15:40 48.11856 16.57146 596 ft 7 kts 101°
2026-05-04 15:40 48.11848 16.57233 596 ft 8 kts 109°
2026-05-04 15:40 48.11869 16.57305 596 ft 9 kts
2026-05-04 15:41 48.11947 16.57285 594 ft 12 kts 359°
2026-05-04 15:41 48.11999 16.57384 593 ft 12 kts 75°
2026-05-04 15:41 48.12011 16.57498 592 ft 10 kts 100°
2026-05-04 15:41 48.11998 16.57574 592 ft 4 kts 104°
2026-05-04 15:42 48.11998 16.57579 592 ft 0 kts 104°
2026-05-04 15:43 48.11996 16.57586 592 ft 1 kts 105°
2026-05-04 15:43 48.11988 16.57631 592 ft 7 kts 106°
2026-05-04 15:43 48.11972 16.57711 592 ft 8 kts 108°
2026-05-04 15:44 48.11952 16.57801 592 ft 8 kts 112°
2026-05-04 15:44 48.11911 16.57849 592 ft 7 kts 162°
2026-05-04 15:44 48.11896 16.57856 592 ft 0 kts 164°
2026-05-04 15:45 48.11692 16.57943 594 ft 65 kts 164°
2026-05-04 15:45 48.11039 16.58219 598 ft 125 kts 165°
2026-05-04 15:46 48.10058 16.58642 697 ft 162 kts 162°
2026-05-04 15:46 48.08975 16.59106 1233 ft 164 kts 164°
2026-05-04 15:46 48.07879 16.59552 1981 ft 161 kts 165°
2026-05-04 15:46 48.06818 16.59971 2603 ft 161 kts 170°
2026-05-04 15:47 48.05649 16.59774 2916 ft 182 kts 202°
2026-05-04 15:47 48.04628 16.58470 3249 ft 205 kts 225°
2026-05-04 15:47 48.03649 16.56764 3533 ft 228 kts 226°
2026-05-04 15:47 48.02750 16.54678 3947 ft 252 kts 246°
2026-05-04 15:48 48.02457 16.52004 4454 ft 272 kts 266°
2026-05-04 15:48 48.02493 16.49197 5271 ft 275 kts 268°
2026-05-04 15:48 48.02572 16.43514 6967 ft 278 kts 268°
2026-05-04 15:49 48.02593 16.40642 7801 ft 280 kts 268°
2026-05-04 15:49 48.02702 16.37761 8628 ft 284 kts 276°
2026-05-04 15:49 48.03175 16.34868 9475 ft 288 kts 287°
2026-05-04 15:49 48.03903 16.32111 10303 ft 291 kts 289°
2026-05-04 15:50 48.04701 16.29294 10832 ft 304 kts 290°
2026-05-04 15:50 48.05539 16.26342 11203 ft 321 kts 290°
2026-05-04 15:50 48.06440 16.23145 11554 ft 340 kts 290°
2026-05-04 15:50 48.07368 16.19825 11920 ft 356 kts 290°
2026-05-04 15:51 48.08319 16.16409 12564 ft 361 kts 290°
2026-05-04 15:51 48.09290 16.12915 13334 ft 364 kts 290°
2026-05-04 15:51 48.10245 16.09461 14059 ft 366 kts 290°
2026-05-04 15:51 48.11210 16.05958 14777 ft 369 kts 290°
2026-05-04 15:52 48.12191 16.02390 15494 ft 372 kts 290°
2026-05-04 15:52 48.13179 15.98788 16176 ft 375 kts 290°
2026-05-04 15:52 48.14153 15.95232 16833 ft 378 kts 290°
2026-05-04 15:52 48.15163 15.91559 17481 ft 381 kts 291°
2026-05-04 15:53 48.16186 15.87930 18066 ft 385 kts 291°
2026-05-04 15:53 48.17243 15.84223 18653 ft 389 kts 291°
2026-05-04 15:53 48.18294 15.80522 19228 ft 392 kts 292°
2026-05-04 15:53 48.19357 15.76773 19797 ft 395 kts 292°
2026-05-04 15:54 48.20432 15.72971 20375 ft 398 kts 292°
2026-05-04 15:54 48.21511 15.69144 20940 ft 401 kts 292°
2026-05-04 15:54 48.22598 15.65280 21501 ft 403 kts 292°
2026-05-04 15:54 48.23679 15.61432 22033 ft 406 kts 292°
2026-05-04 15:55 48.24764 15.57558 22548 ft 409 kts 292°
2026-05-04 15:55 48.25876 15.53587 23066 ft 411 kts 292°
2026-05-04 15:55 48.26974 15.49647 23570 ft 413 kts 292°
2026-05-04 15:55 48.28073 15.45705 24061 ft 416 kts 292°
2026-05-04 15:56 48.29165 15.41655 24530 ft 418 kts 290°
2026-05-04 15:56 48.30107 15.37565 24977 ft 421 kts 288°
2026-05-04 15:56 48.30989 15.33332 25384 ft 424 kts 287°
2026-05-04 15:56 48.31855 15.29099 25817 ft 426 kts 287°
2026-05-04 15:57 48.32715 15.24882 26230 ft 427 kts 287°
2026-05-04 15:57 48.33586 15.20598 26625 ft 430 kts 287°
2026-05-04 15:57 48.34450 15.16345 27002 ft 432 kts 287°
2026-05-04 15:57 48.35324 15.12045 27369 ft 434 kts 287°
2026-05-04 15:58 48.36203 15.07709 27825 ft 434 kts 287°
2026-05-04 15:58 48.37077 15.03386 28379 ft 431 kts 287°
2026-05-04 15:58 48.37940 14.99115 28923 ft 429 kts 287°
2026-05-04 15:58 48.38797 14.94859 29423 ft 427 kts 287°
2026-05-04 15:59 48.39656 14.90586 29916 ft 425 kts 287°
2026-05-04 15:59 48.40505 14.86361 30370 ft 424 kts 287°
2026-05-04 15:59 48.41354 14.82117 30808 ft 424 kts 287°
2026-05-04 15:59 48.42196 14.77913 31256 ft 422 kts 287°
2026-05-04 16:00 48.43031 14.73728 31712 ft 421 kts 287°
2026-05-04 16:00 48.43866 14.69540 32148 ft 419 kts 287°
2026-05-04 16:00 48.44698 14.65349 32557 ft 418 kts 286°
2026-05-04 16:00 48.45526 14.61169 32937 ft 417 kts 286°
2026-05-04 16:01 48.46349 14.57007 33298 ft 416 kts 286°
2026-05-04 16:01 48.47169 14.52851 33652 ft 415 kts 286°
2026-05-04 16:01 48.47991 14.48675 33995 ft 414 kts 286°
2026-05-04 16:01 48.48806 14.44525 34299 ft 414 kts 286°
2026-05-04 16:02 48.49623 14.40358 34578 ft 414 kts 286°
2026-05-04 16:02 48.50429 14.36241 34794 ft 414 kts 285°
2026-05-04 16:02 48.52053 14.27905 35173 ft 416 kts 285°
2026-05-04 16:03 48.52872 14.23688 35356 ft 417 kts 285°
2026-05-04 16:03 48.53682 14.19510 35523 ft 418 kts 285°
2026-05-04 16:03 48.54491 14.15327 35699 ft 418 kts 285°
2026-05-04 16:03 48.55301 14.11131 35871 ft 418 kts 284°
2026-05-04 16:04 48.56125 14.06856 35920 ft 420 kts 284°
2026-05-04 16:04 48.58560 13.94150 35930 ft 421 kts 284°
2026-05-04 16:05 48.60182 13.85641 35932 ft 421 kts 284°
2026-05-04 16:06 48.62596 13.72897 35933 ft 421 kts 284°
2026-05-04 16:06 48.65905 13.60517 35923 ft 424 kts 297°
2026-05-04 16:07 48.67426 13.56722 35920 ft 426 kts 302°
2026-05-04 16:07 48.73163 13.46473 35913 ft 430 kts 313°
2026-05-04 16:08 48.75276 13.43307 35914 ft 430 kts 313°
2026-05-04 16:09 48.85897 13.27364 35923 ft 430 kts 312°
2026-05-04 16:10 48.94356 13.14540 36374 ft 427 kts 312°
2026-05-04 16:11 49.00594 13.05036 37020 ft 424 kts 311°
2026-05-04 16:11 49.02670 13.01864 37197 ft 424 kts 311°
2026-05-04 16:12 49.08877 12.92359 37772 ft 423 kts 311°
2026-05-04 16:12 49.15095 12.82801 37921 ft 423 kts 311°
2026-05-04 16:13 49.23343 12.70065 37916 ft 423 kts 311°
2026-05-04 16:14 49.31552 12.57329 37892 ft 420 kts 312°
2026-05-04 16:15 49.38116 12.48614 36406 ft 419 kts 318°
2026-05-04 16:16 49.42722 12.43037 35463 ft 422 kts 319°
2026-05-04 16:16 49.49612 12.34653 34390 ft 424 kts 318°
2026-05-04 16:17 49.54276 12.28949 33945 ft 425 kts 318°
2026-05-04 16:18 49.63523 12.17596 33950 ft 425 kts 317°
2026-05-04 16:19 49.75036 12.03375 33960 ft 424 kts 318°
2026-05-04 16:20 49.86855 11.88684 33961 ft 424 kts 318°
2026-05-04 16:22 49.98561 11.74034 33961 ft 425 kts 318°
2026-05-04 16:23 50.11265 11.55147 33948 ft 419 kts 305°
2026-05-04 16:25 50.21887 11.33707 33955 ft 418 kts 304°
2026-05-04 16:26 50.34228 11.08643 33952 ft 418 kts 303°
2026-05-04 16:28 50.42881 10.90926 33950 ft 418 kts 303°
2026-05-04 16:29 50.55124 10.65646 33945 ft 418 kts 303°
2026-05-04 16:31 50.62598 10.46287 33945 ft 413 kts 294°
2026-05-04 16:32 50.70453 10.22213 33178 ft 411 kts 293°
2026-05-04 16:33 50.73038 10.14269 32175 ft 406 kts 292°
2026-05-04 16:33 50.75599 10.06359 31184 ft 409 kts 292°
2026-05-04 16:34 50.78186 9.98340 30110 ft 412 kts 292°
2026-05-04 16:34 50.79467 9.94362 29578 ft 414 kts 293°
2026-05-04 16:35 50.83392 9.82138 27795 ft 420 kts 293°
2026-05-04 16:35 50.87377 9.69486 25942 ft 424 kts 291°
2026-05-04 16:36 50.88555 9.65154 25315 ft 421 kts 290°
2026-05-04 16:36 50.90828 9.56509 24049 ft 414 kts 290°
2026-05-04 16:37 50.93010 9.48181 22840 ft 407 kts 290°
2026-05-04 16:37 50.94091 9.44055 22233 ft 405 kts 290°
2026-05-04 16:37 50.96222 9.35916 21045 ft 399 kts 290°
2026-05-04 16:38 50.98301 9.27946 19887 ft 394 kts 289°
2026-05-04 16:39 51.01362 9.16144 18153 ft 387 kts 290°
2026-05-04 16:39 51.03368 9.08379 17076 ft 381 kts 290°
2026-05-04 16:40 51.05350 9.00678 15975 ft 376 kts 290°
2026-05-04 16:40 51.07309 8.93043 14896 ft 371 kts 290°
2026-05-04 16:41 51.09234 8.85520 13822 ft 366 kts 290°
2026-05-04 16:41 51.12340 8.74664 12279 ft 360 kts 297°
2026-05-04 16:42 51.15950 8.64545 10691 ft 354 kts 300°
2026-05-04 16:43 51.18853 8.58896 10097 ft 340 kts 310°
2026-05-04 16:43 51.21700 8.53926 9756 ft 318 kts 309°
2026-05-04 16:43 51.23054 8.51510 9641 ft 306 kts 309°
2026-05-04 16:44 51.27942 8.42576 9194 ft 285 kts 308°
2026-05-04 16:45 51.30352 8.38111 8960 ft 284 kts 308°
2026-05-04 16:46 51.34032 8.31280 8430 ft 277 kts 308°
2026-05-04 16:46 51.36293 8.27074 7935 ft 268 kts 308°
2026-05-04 16:47 51.38659 8.22667 7445 ft 258 kts 308°
2026-05-04 16:47 51.40858 8.18562 6857 ft 245 kts 308°
2026-05-04 16:48 51.43823 8.13019 6074 ft 227 kts 308°
2026-05-04 16:48 51.44813 8.11163 5808 ft 226 kts 308°
2026-05-04 16:49 51.46832 8.07372 5280 ft 223 kts 308°
2026-05-04 16:49 51.48848 8.03585 4804 ft 222 kts 309°
2026-05-04 16:50 51.50817 7.99885 4344 ft 215 kts 308°
2026-05-04 16:50 51.52725 7.96288 3868 ft 208 kts 308°
2026-05-04 16:51 51.54620 7.92708 3469 ft 197 kts 309°
2026-05-04 16:51 51.55482 7.91089 3373 ft 185 kts 308°
2026-05-04 16:51 51.57139 7.87953 3296 ft 183 kts 308°
2026-05-04 16:52 51.58783 7.84835 3124 ft 178 kts 306°
2026-05-04 16:52 51.59175 7.83085 2974 ft 164 kts 263°
2026-05-04 16:53 51.58315 7.79601 2794 ft 164 kts 240°
2026-05-04 16:53 51.56582 7.74702 2122 ft 162 kts 241°
2026-05-04 16:54 51.56039 7.73165 1916 ft 148 kts 241°
2026-05-04 16:55 51.54148 7.67799 1184 ft 133 kts 241°
2026-05-04 16:55 51.53234 7.65205 830 ft 132 kts 240°
2026-05-04 16:56 51.52343 7.62673 479 ft 129 kts 240°
2026-05-04 16:56 51.51559 7.60449 428 ft 22 kts 241°
2026-05-04 16:57 51.51505 7.60293 432 ft 9 kts 241°
2026-05-04 16:57 51.51424 7.60250 434 ft 5 kts 149°
2026-05-04 16:58 51.51370 7.60422 434 ft 8 kts 64°
2026-05-04 16:58 51.51404 7.60521 432 ft 8 kts 61°
2026-05-04 16:59 51.51491 7.60770 427 ft 14 kts 61°
2026-05-04 17:00 51.51663 7.61286 419 ft 10 kts 61°
2026-05-04 17:00 51.51720 7.61449 416 ft 0 kts 60°
2026-05-04 17:03 51.51715 7.61438 416 ft 2 kts 43°
2026-05-04 17:03 51.51683 7.61427 417 ft 2 kts 338°
2026-05-04 17:04 51.51656 7.61453 419 ft 2 kts 330°
2026-05-04 17:04 51.51639 7.61468 419 ft 0 kts 331°